SL-8 R/B

Satellite information

Favourite Embed

Satellite Type and Status

ROCKET BODYIN ORBIT

Key statistics

Satellite SL-8 R/B at a glance.

Uptime

8070

Days in orbit

Revolutions

≈ 13.7

Per day

Orbit

LEO

Low Earth Orbit

Inclination

82.9

Latest

Satellite identification and parameters

Extended collection of information and parameters for SL-8 R/B.

Object identification

Identified? True

Debris? False

Object name: SL-8 R/B

International designator: 2003-023B

Object number (NORAD): 27819

Object ID (CCSDS): 27819

Country: COMMONWEALTH OF INDEPENDENT STATES (CIS)

Current information (Y/N): Y

RCS size: LARGE

Orbital parameters

Period: 104.766 minutes

Inclination: 82.9479 deg

SMA: 7361.617 km

Apoapsis: 1018.245 km

Periapsis: 948.719 km

RAAN: 9.9462 deg

Eccentricy: 0.0047222

Argument of periapsis: 144.4335 deg

Mean anomaly: 287.8232 deg

Mean motion: 13.74494164 rev/day

Mean motion (dot): 0.00000146 rev/day2

B* drag term: 0.00013684 1/REarth

Two-line elements (TLE)

Creation date: July 6, 2025, 6:05 p.m.

Reference frame: TEME

Reference center: EARTH

Epoch: July 6, 2025, 3:36 p.m. UTC

TLE line 0: 0 SL-8 R/B

TLE line 1: 1 27819U 03023B 25187.65018215 .00000146 00000-0 13684-3 0 9992

TLE line 2: 2 27819 82.9479 9.9462 0047222 144.4335 287.8232 13.74494164107765

Live tracking on map

Real-time ground track for satellite SL-8 R/B.

In-orbit conjunctions

A list of the most updated potential collisions computed for object SL-8 R/B.

Target Orbit TCA Probability of collision Miss distance Type
COSMOS 2034 LEO 2024-10-13 18:23:51 0.0002252392 141.0 (m) PAYLOAD

Associated space launch

Navigation satellite providing location information for the Tsiklon-B navigation system

SL-8 R/B was lifted into orbit during the mission ‘Kosmos-3M | Parus 94’, on board a Kosmos-3M space rocket.

The launch took place on June 4, 2003, 7:23 p.m. from 132/1 (132L).

For more information about the launch, click the button.

Launch to space Kosmos-3M | Parus 94
Kosmos-3M | Parus 94

Agency: N/A

Status: Launch Successful

Launch date: June 4, 2003, 7:23 p.m. UTC

Rocket: Kosmos-3M

Launch pad: 132/1 (132L)

Location: Plesetsk Cosmodrome, Russian Federation

...

Latest news about this satellite

There are no fresh news available about this satellite. Check back as we update our databases every day.


Newsletter sign-up

Weekly statistics, charts and insights to help you stay on top of the space industry.